This is the latest recevied weather packets stored in our database for station/object JF2ZGN-13. If no packets are shown the sender has not sent any weather packets the latest 10 day(s).
| Time | Temp. | Humidity | Pressure | Rain* | Wind** | Luminosity | Snow |
|---|---|---|---|---|---|---|---|
| 1777871734 | 13.89° C | 67% | 892.6 hPa | 20.07 mm | - | - | - |
| 1777871133 | 14.44° C | 67% | 892.4 hPa | 20.07 mm | - | - | - |
| 1777870532 | 14.44° C | 63% | 892.4 hPa | 20.07 mm | - | - | - |
| 1777869932 | 14.44° C | 63% | 892.5 hPa | 20.07 mm | - | - | - |
| 1777869332 | 14.44° C | 67% | 891.8 hPa | 20.07 mm | - | - | - |
| 1777868732 | 14.44° C | 65% | 892.4 hPa | 20.07 mm | - | - | - |
| 1777868130 | 14.44° C | 68% | 892.6 hPa | 20.07 mm | - | - | - |
| 1777867530 | 14.44° C | 67% | 892.4 hPa | 20.07 mm | - | - | - |
| 1777866930 | 14.44° C | 64% | 892.2 hPa | 20.07 mm | - | - | - |
| 1777865729 | 15° C | 70% | 893.1 hPa | 20.07 mm | - | - | - |
| 1777865129 | 14.44° C | 69% | 892.9 hPa | 20.07 mm | - | - | - |
| 1777864528 | 15° C | 68% | 893.1 hPa | 20.07 mm | - | - | - |
| 1777862727 | 14.44° C | 66% | 892.6 hPa | 20.07 mm | - | - | - |
| 1777846515 | 15° C | 38% | 892.8 hPa | 19.81 mm | - | - | - |
| 1777845914 | 15.56° C | 43% | 892.8 hPa | 19.81 mm | - | - | - |
| 1777845313 | 15.56° C | 53% | 892.6 hPa | 19.81 mm | - | - | - |
| 1777844713 | 15.56° C | 61% | 893.3 hPa | 19.56 mm | - | - | - |
| 1777844113 | 16.11° C | 68% | 893.1 hPa | 19.3 mm | - | - | - |
| 1777842311 | 16.67° C | 70% | 893.1 hPa | 18.29 mm | - | - | - |
| 1777841111 | 16.67° C | 65% | 894 hPa | 17.27 mm | - | - | - |
| 1777839909 | 16.67° C | 62% | 892.9 hPa | 15.75 mm | - | - | - |
| 1777839309 | 16.67° C | 67% | 893.4 hPa | 15.49 mm | - | - | - |
| 1777832704 | 16.11° C | 65% | 894.6 hPa | 8.64 mm | - | - | - |
| 1777829101 | 15° C | 58% | 894.3 hPa | 5.84 mm | - | - | - |
| 1777827300 | 13.89° C | 59% | 896.1 hPa | 4.57 mm | - | - | - |
* Rain since midnight (hover to see other rain measurements)
** Current wind speed in m/s (hover to see current wind gust speed)